Previsão horária em Centralnaya

Hoje, 25 Julho, Domingo

Tempo Temperatura Precipitação Vento Pressão Humidade
00:00 +18°C° 0 mm 1 m/s 749 mmHg 74%
01:00 +18°C° 0 mm 1 m/s 749 mmHg 72%
02:00 +18°C° 0 mm 1 m/s 749 mmHg 71%
03:00 +18°C° 0 mm 1 m/s 749 mmHg 72%
04:00 +18°C° 0 mm 1 m/s 749 mmHg 73%
05:00 +18°C° 0 mm 1 m/s 749 mmHg 74%
06:00 +19°C° 0 mm 1 m/s 749 mmHg 71%
07:00 +20°C° 0 mm 1 m/s 750 mmHg 69%
08:00 +22°C° 0 mm 1 m/s 750 mmHg 67%
09:00 +23°C° 0 mm 1 m/s 750 mmHg 64%
10:00 +24°C° 0 mm 2 m/s 750 mmHg 61%
11:00 +25°C° 0 mm 2 m/s 750 mmHg 58%
12:00 +26°C° 0.2 mm 2 m/s 750 mmHg 56%
13:00 +27°C° 0.2 mm 2 m/s 750 mmHg 54%
14:00 +27°C° 0.2 mm 2 m/s 750 mmHg 51%
15:00 +27°C° 0 mm 2 m/s 750 mmHg 53%
16:00 +27°C° 0 mm 2 m/s 750 mmHg 55%
17:00 +26°C° 0 mm 2 m/s 749 mmHg 57%
18:00 +25°C° 0.1 mm 1 m/s 750 mmHg 63%
19:00 +23°C° 0.1 mm 1 m/s 750 mmHg 69%
20:00 +22°C° 0.1 mm 1 m/s 750 mmHg 75%
21:00 +22°C° 0 mm 1 m/s 750 mmHg 76%
22:00 +21°C° 0 mm 1 m/s 750 mmHg 76%
23:00 +20°C° 0 mm 2 m/s 750 mmHg 77%

Amanhã, 26 Julho, Segunda-feira

Tempo Temperatura Precipitação Vento Pressão Humidade
00:00 +19°C° 0 mm 2 m/s 750 mmHg 78%
01:00 +19°C° 0 mm 2 m/s 750 mmHg 80%
02:00 +18°C° 0 mm 2 m/s 750 mmHg 82%
03:00 +18°C° 0 mm 2 m/s 750 mmHg 82%
04:00 +17°C° 0 mm 2 m/s 750 mmHg 83%
05:00 +17°C° 0 mm 2 m/s 751 mmHg 83%
06:00 +18°C° 0 mm 3 m/s 751 mmHg 78%
07:00 +20°C° 0 mm 3 m/s 751 mmHg 73%
08:00 +22°C° 0 mm 3 m/s 751 mmHg 69%
09:00 +24°C° 0 mm 3 m/s 751 mmHg 63%
10:00 +26°C° 0 mm 3 m/s 751 mmHg 58%
11:00 +28°C° 0 mm 4 m/s 751 mmHg 52%
12:00 +28°C° 0 mm 4 m/s 751 mmHg 50%
13:00 +29°C° 0 mm 4 m/s 751 mmHg 48%
14:00 +29°C° 0 mm 4 m/s 750 mmHg 46%
15:00 +29°C° 0 mm 3 m/s 750 mmHg 47%
16:00 +29°C° 0 mm 3 m/s 750 mmHg 49%
17:00 +29°C° 0 mm 3 m/s 750 mmHg 51%
18:00 +27°C° 0 mm 3 m/s 750 mmHg 57%
19:00 +25°C° 0 mm 3 m/s 750 mmHg 64%
20:00 +22°C° 0 mm 3 m/s 750 mmHg 70%
21:00 +22°C° 0 mm 3 m/s 750 mmHg 68%
22:00 +21°C° 0 mm 4 m/s 750 mmHg 66%
23:00 +21°C° 0 mm 4 m/s 750 mmHg 64%

Depois de amanhã, 27 Julho, Terça-feira

Tempo Temperatura Precipitação Vento Pressão Humidade
00:00 +21°C° 0 mm 4 m/s 750 mmHg 67%
01:00 +20°C° 0 mm 4 m/s 749 mmHg 70%
02:00 +19°C° 0 mm 3 m/s 749 mmHg 73%
03:00 +19°C° 0 mm 4 m/s 749 mmHg 73%
04:00 +19°C° 0 mm 4 m/s 749 mmHg 72%
05:00 +20°C° 0 mm 4 m/s 749 mmHg 71%
06:00 +20°C° 0 mm 5 m/s 749 mmHg 70%
07:00 +21°C° 0 mm 5 m/s 748 mmHg 69%
08:00 +22°C° 0 mm 5 m/s 748 mmHg 68%
09:00 +23°C° 0 mm 5 m/s 748 mmHg 66%
10:00 +25°C° 0 mm 5 m/s 748 mmHg 64%
11:00 +26°C° 0 mm 5 m/s 748 mmHg 62%
12:00 +25°C° 0.1 mm 5 m/s 748 mmHg 66%
13:00 +25°C° 0.1 mm 5 m/s 748 mmHg 69%
14:00 +23°C° 0.1 mm 5 m/s 748 mmHg 73%
15:00 +25°C° 0.1 mm 5 m/s 747 mmHg 70%
16:00 +26°C° 0.1 mm 5 m/s 747 mmHg 66%
17:00 +27°C° 0.1 mm 5 m/s 747 mmHg 62%
18:00 +25°C° 0.6 mm 5 m/s 746 mmHg 71%
19:00 +23°C° 0.6 mm 4 m/s 746 mmHg 79%
20:00 +21°C° 0.6 mm 4 m/s 745 mmHg 88%
21:00 +20°C° 0.6 mm 3 m/s 745 mmHg 90%
22:00 +20°C° 0.6 mm 3 m/s 745 mmHg 93%
23:00 +19°C° 0.6 mm 3 m/s 745 mmHg 95%

28 Julho, Quarta-feira

Tempo Temperatura Precipitação Vento Pressão Humidade
00:00 +19°C° 0 mm 2 m/s 745 mmHg 96%
01:00 +19°C° 0 mm 2 m/s 745 mmHg 96%
02:00 +19°C° 0 mm 2 m/s 745 mmHg 97%
03:00 +19°C° 0 mm 2 m/s 745 mmHg 97%
04:00 +19°C° 0 mm 1 m/s 745 mmHg 97%
05:00 +19°C° 0 mm 1 m/s 744 mmHg 97%
06:00 +21°C° 0 mm 1 m/s 745 mmHg 93%
07:00 +21°C° 0 mm 2 m/s 745 mmHg 89%
08:00 +23°C° 0 mm 2 m/s 745 mmHg 86%
09:00 +25°C° 0 mm 2 m/s 745 mmHg 78%
10:00 +26°C° 0 mm 2 m/s 745 mmHg 71%
11:00 +27°C° 0 mm 2 m/s 745 mmHg 63%
12:00 +28°C° 0 mm 3 m/s 745 mmHg 59%
13:00 +29°C° 0 mm 3 m/s 744 mmHg 55%
14:00 +29°C° 0 mm 3 m/s 744 mmHg 51%
15:00 +29°C° 0 mm 3 m/s 744 mmHg 53%
16:00 +29°C° 0 mm 3 m/s 744 mmHg 54%
17:00 +29°C° 0 mm 3 m/s 744 mmHg 56%
18:00 +27°C° 0 mm 2 m/s 744 mmHg 61%
19:00 +25°C° 0 mm 2 m/s 744 mmHg 67%
20:00 +24°C° 0 mm 1 m/s 744 mmHg 73%
21:00 +22°C° 0.3 mm 3 m/s 744 mmHg 79%
22:00 +20°C° 0.3 mm 4 m/s 744 mmHg 85%
23:00 +19°C° 0.3 mm 6 m/s 744 mmHg 92%

29 Julho, Quinta-feira

Tempo Temperatura Precipitação Vento Pressão Humidade
00:00 +19°C° 2.4 mm 5 m/s 745 mmHg 94%
01:00 +18°C° 2.4 mm 4 m/s 745 mmHg 95%
02:00 +18°C° 2.4 mm 3 m/s 745 mmHg 97%
03:00 +18°C° 0.1 mm 2 m/s 745 mmHg 98%
04:00 +17°C° 0.1 mm 2 m/s 745 mmHg 98%
05:00 +17°C° 0.1 mm 2 m/s 745 mmHg 98%
06:00 +18°C° 0 mm 3 m/s 745 mmHg 94%
07:00 +19°C° 0 mm 3 m/s 745 mmHg 90%
08:00 +20°C° 0 mm 4 m/s 745 mmHg 86%
09:00 +21°C° 0 mm 4 m/s 745 mmHg 78%
10:00 +22°C° 0 mm 5 m/s 745 mmHg 70%
11:00 +25°C° 0 mm 5 m/s 746 mmHg 62%
12:00 +26°C° 0 mm 5 m/s 746 mmHg 58%
13:00 +26°C° 0 mm 5 m/s 745 mmHg 54%
14:00 +27°C° 0 mm 5 m/s 745 mmHg 51%
15:00 +26°C° 0.1 mm 4 m/s 745 mmHg 57%
16:00 +25°C° 0.1 mm 4 m/s 745 mmHg 63%
17:00 +24°C° 0.1 mm 3 m/s 745 mmHg 69%
18:00 +22°C° 0.1 mm 3 m/s 745 mmHg 73%
19:00 +21°C° 0.1 mm 3 m/s 745 mmHg 78%
20:00 +20°C° 0.1 mm 3 m/s 746 mmHg 82%
21:00 +19°C° 0 mm 3 m/s 746 mmHg 84%
22:00 +18°C° 0 mm 2 m/s 746 mmHg 87%
23:00 +17°C° 0 mm 2 m/s 746 mmHg 90%

30 Julho, Sexta-feira

Tempo Temperatura Precipitação Vento Pressão Humidade
00:00 +17°C° 0 mm 2 m/s 746 mmHg 90%
01:00 +16°C° 0 mm 1 m/s 746 mmHg 90%
02:00 +16°C° 0 mm 1 m/s 746 mmHg 90%
03:00 +16°C° 0 mm 1 m/s 746 mmHg 90%
04:00 +15°C° 0 mm 1 m/s 746 mmHg 90%
05:00 +15°C° 0 mm 1 m/s 746 mmHg 90%
06:00 +17°C° 0 mm 2 m/s 746 mmHg 85%
07:00 +19°C° 0 mm 2 m/s 746 mmHg 80%
08:00 +21°C° 0 mm 2 m/s 746 mmHg 75%
09:00 +22°C° 0 mm 3 m/s 746 mmHg 68%
10:00 +25°C° 0 mm 3 m/s 746 mmHg 62%
11:00 +26°C° 0 mm 3 m/s 746 mmHg 56%
12:00 +27°C° 0 mm 3 m/s 746 mmHg 55%
13:00 +27°C° 0 mm 4 m/s 745 mmHg 55%
14:00 +28°C° 0 mm 4 m/s 745 mmHg 54%
15:00 +28°C° 0 mm 3 m/s 745 mmHg 56%
16:00 +28°C° 0 mm 3 m/s 744 mmHg 59%
17:00 +28°C° 0 mm 2 m/s 744 mmHg 61%
18:00 +26°C° 0.1 mm 2 m/s 744 mmHg 68%
19:00 +25°C° 0.1 mm 2 m/s 744 mmHg 74%
20:00 +23°C° 0.1 mm 2 m/s 744 mmHg 81%
21:00 +21°C° 0.1 mm 3 m/s 744 mmHg 84%
22:00 +20°C° 0.1 mm 3 m/s 744 mmHg 87%
23:00 +19°C° 0.1 mm 3 m/s 744 mmHg 90%
Mostrar mais

Necessitamos do seu Consentimento

A Meteoprog e os seus Fornecedores de Serviços podem armazenar e aceder a dados pessoais como cookies, identificadores do dispositivo ou outras tecnologias semelhantes existentes no seu dispositivo e processar estes dados para personalizar conteúdos e anúncios, assim como funcionalidades nas redes sociais e análise de tráfego.

  • Armazenar e/ou aceder a informações no seu dispositivo

    Os cookies, identificadores do dispositivo ou outras informações podem ser armazenados ou acedidos no seu dispositivo, para os fins acima indicados.

  • Anúncios e conteúdos personalizados, medição de anúncios e conteúdos, dados sobre o público-alvo e desenvolvimento de produtos

    Os anúncios e os conteúdos podem ser personalizados com base num perfil. Podem ser adicionados dados adicionais para uma maior personalização dos anúncios e dos conteúdos. A eficácia dos anúncios e dos conteúdos pode ser medida. Podem ser obtidas informações sobre o público que visualizou os anúncios e os conteúdos. Estes dados podem ser usados para desenvolver ou melhorar sistemas, softwares ou a experiência do utilizador.

Ao clicar em "Eu concordo”, permitirá o uso de cookies, identificadores do dispositivo e web beacons mencionados ou outras tecnologias semelhantes. As configurações do navegador do seu dispositivo podem ser alteradas.

Para certos fins, podem ser invocados interesses legítimos ao invés de consentimento. Pode ler mais informação sobre este assunto na nossa Política de Privacidade e Cookies.